Chippewa, MI

7:59 AM EDT on June 28, 2017 (GMT -0400)
Chippewa County International

Weather History for KCIU - March, 2013

Change the Weather History Date:

Monday, March 25, 2013

  Actual Average Record
Temperature  
Mean Temperature 32 °F -  
Max Temperature 35 °F 41 °F 49 °F (1981)
Min Temperature 28 °F 18 °F -13 °F (1983)
Degree Days  
Heating Degree Days 34    
Moisture  
Dew Point 26 °F    
Average Humidity 78    
Maximum Humidity 87    
Minimum Humidity 65    
Precipitation  
Precipitation 0.00 in - - ()
Sea Level Pressure  
Sea Level Pressure 29.88 in    
Wind  
Wind Speed 10 mph (North)    
Max Wind Speed 18 mph    
Max Gust Speed 24 mph    
Visibility 10 miles    
Events      
Averages and records for this station are not official NWS values.
T = Trace of Precipitation, MM = Missing Value Source: NWS Daily Summary

Daily Weather History Graph

Daily Weather History Graph

Search for Another Location

Airport or City:

Trip Planner

Search our weather history database for the weather conditions in past years. The results will help you decide how hot, cold, wet, or windy it might be!

Date:

Astronomy

Mar. 25, 2013 Rise Set
Actual Time 7:30 AM EDT 7:57 PM EDT
Civil Twilight 7:00 AM EDT 8:27 PM EDT
Nautical Twilight 6:25 AM EDT 9:03 PM EDT
Astronomical Twilight 5:48 AM EDT 9:40 PM EDT
Moon 6:25 PM EDT (3/25) 6:18 AM EDT (3/25)
Length of Visible Light 13h 27m
Length of Day
12h 26m
Waxing Gibbous, 96% of the Moon is Illuminated
Mar 25
Waxing Gibbous
Mar 27
Full
Apr 3
Last Quarter
Apr 10
New
Apr 18
First Quarter

Hourly Weather History & Observations

Time (EDT) Temp. Windchill Dew Point Humidity Pressure Visibility Wind Dir Wind Speed Gust Speed Precip Events Conditions
12:15 AM 28.4 °F 20.4 °F 21.2 °F 74% 29.88 in 10.0 mi NE 8.1 mph - N/A   Clear
12:35 AM 28.4 °F 21.2 °F 21.2 °F 74% 29.88 in 10.0 mi NNE 6.9 mph - N/A   Scattered Clouds
12:55 AM 28.4 °F 22.2 °F 23.0 °F 80% 29.88 in 10.0 mi NE 5.8 mph - N/A   Mostly Cloudy
1:15 AM 28.4 °F 22.2 °F 23.0 °F 80% 29.89 in 10.0 mi NE 5.8 mph - N/A   Overcast
1:35 AM 28.4 °F 20.4 °F 24.8 °F 86% 29.89 in 10.0 mi NE 8.1 mph - N/A   Overcast
1:55 AM 30.2 °F 21.9 °F 24.8 °F 80% 29.88 in 10.0 mi NE 9.2 mph - N/A   Overcast
2:15 AM 30.2 °F 21.3 °F 24.8 °F 80% 29.88 in 10.0 mi NE 10.4 mph 18.4 mph N/A   Overcast
2:35 AM 30.2 °F 21.3 °F 24.8 °F 80% 29.88 in 10.0 mi NE 10.4 mph - N/A   Overcast
2:55 AM 30.2 °F 21.9 °F 24.8 °F 80% 29.88 in 10.0 mi East 9.2 mph - N/A   Overcast
3:15 AM 30.2 °F 24.3 °F 24.8 °F 80% 29.88 in 10.0 mi NE 5.8 mph - N/A   Overcast
3:35 AM 30.2 °F 25.4 °F 24.8 °F 80% 29.88 in 10.0 mi NNE 4.6 mph - N/A   Overcast
3:55 AM 28.4 °F 19.7 °F 24.8 °F 86% 29.87 in 10.0 mi NNE 9.2 mph - N/A   Overcast
4:15 AM 28.4 °F 19.7 °F 24.8 °F 86% 29.87 in 10.0 mi NNE 9.2 mph - N/A   Overcast
4:35 AM 28.4 °F 20.4 °F 24.8 °F 86% 29.87 in 10.0 mi NNE 8.1 mph - N/A   Overcast
4:55 AM 28.4 °F 21.2 °F 24.8 °F 86% 29.86 in 10.0 mi NNE 6.9 mph - N/A   Overcast
5:15 AM 28.4 °F 22.2 °F 24.8 °F 86% 29.86 in 10.0 mi North 5.8 mph - N/A   Overcast
5:35 AM 28.4 °F 20.4 °F 24.8 °F 86% 29.86 in 10.0 mi NNE 8.1 mph - N/A   Overcast
5:55 AM 28.4 °F 21.2 °F 24.8 °F 86% 29.86 in 10.0 mi North 6.9 mph - N/A   Overcast
6:15 AM 28.4 °F 19.7 °F 24.8 °F 86% 29.86 in 10.0 mi North 9.2 mph - N/A   Overcast
6:35 AM 28.4 °F 19.1 °F 24.8 °F 86% 29.86 in 10.0 mi North 10.4 mph - N/A   Overcast
6:55 AM 28.4 °F 19.1 °F 24.8 °F 86% 29.86 in 10.0 mi North 10.4 mph - N/A   Overcast
7:15 AM 28.4 °F 19.7 °F 24.8 °F 86% 29.86 in 10.0 mi North 9.2 mph - N/A   Overcast
7:35 AM 28.4 °F 20.4 °F 24.8 °F 86% 29.86 in 10.0 mi North 8.1 mph - N/A   Overcast
7:55 AM 28.4 °F 20.4 °F 24.8 °F 86% 29.86 in 10.0 mi North 8.1 mph - N/A   Overcast
8:15 AM 28.4 °F 19.1 °F 24.8 °F 86% 29.87 in 10.0 mi North 10.4 mph - N/A   Overcast
8:35 AM 28.4 °F 19.1 °F 24.8 °F 86% 29.87 in 10.0 mi North 10.4 mph - N/A   Overcast
8:55 AM 28.4 °F 18.0 °F 24.8 °F 86% 29.87 in 10.0 mi North 12.7 mph - N/A   Overcast
9:15 AM 28.4 °F 19.1 °F 24.8 °F 86% 29.87 in 10.0 mi North 10.4 mph - N/A   Overcast
9:35 AM 28.4 °F 18.5 °F 24.8 °F 86% 29.87 in 10.0 mi North 11.5 mph - N/A   Overcast
9:55 AM 28.4 °F 17.0 °F 24.8 °F 86% 29.87 in 10.0 mi NNE 15.0 mph 19.6 mph N/A   Overcast
10:15 AM 30.2 °F 21.3 °F 24.8 °F 80% 29.87 in 10.0 mi North 10.4 mph - N/A   Overcast
10:35 AM 30.2 °F 20.2 °F 24.8 °F 80% 29.87 in 10.0 mi North 12.7 mph 18.4 mph N/A   Overcast
10:55 AM 30.2 °F 19.8 °F 24.8 °F 80% 29.87 in 10.0 mi NNE 13.8 mph - N/A   Overcast
11:15 AM 32.0 °F 22.5 °F 24.8 °F 75% 29.87 in 10.0 mi North 12.7 mph 18.4 mph N/A   Overcast
11:35 AM 33.8 °F 24.8 °F 24.8 °F 70% 29.87 in 10.0 mi North 12.7 mph - N/A   Overcast
11:55 AM 33.8 °F 25.3 °F 24.8 °F 70% 29.87 in 10.0 mi North 11.5 mph 16.1 mph N/A   Overcast
12:15 PM 33.8 °F 25.3 °F 24.8 °F 70% 29.87 in 10.0 mi North 11.5 mph - N/A   Overcast
12:35 PM 35.6 °F 27.1 °F 24.8 °F 65% 29.87 in 10.0 mi North 12.7 mph 16.1 mph N/A   Overcast
12:55 PM 35.6 °F 28.0 °F 24.8 °F 65% 29.87 in 10.0 mi North 10.4 mph - N/A   Overcast
1:15 PM 35.6 °F 28.0 °F 24.8 °F 65% 29.87 in 10.0 mi NW 10.4 mph - N/A   Overcast
1:35 PM 35.6 °F 27.1 °F 24.8 °F 65% 29.87 in 10.0 mi NNW 12.7 mph - N/A   Overcast
1:55 PM 35.6 °F 28.0 °F 26.6 °F 70% 29.87 in 10.0 mi NW 10.4 mph - N/A   Overcast
2:15 PM 35.6 °F 26.2 °F 26.6 °F 70% 29.86 in 10.0 mi NW 15.0 mph 19.6 mph N/A   Overcast
2:35 PM 35.6 °F 27.5 °F 26.6 °F 70% 29.86 in 10.0 mi NNW 11.5 mph 19.6 mph N/A   Overcast
2:55 PM 35.6 °F 25.2 °F 26.6 °F 70% 29.86 in 10.0 mi NNW 18.4 mph 24.2 mph N/A   Overcast
3:15 PM 35.6 °F 26.2 °F 26.6 °F 70% 29.86 in 10.0 mi NNW 15.0 mph 21.9 mph N/A   Overcast
3:35 PM 35.6 °F 26.2 °F 26.6 °F 70% 29.87 in 10.0 mi NNW 15.0 mph - N/A   Overcast
3:55 PM 35.6 °F 27.1 °F 26.6 °F 70% 29.87 in 10.0 mi NNW 12.7 mph - N/A   Overcast
4:15 PM 35.6 °F 27.1 °F 26.6 °F 70% 29.87 in 10.0 mi NNW 12.7 mph - N/A   Overcast
4:35 PM 35.6 °F 25.9 °F 26.6 °F 70% 29.87 in 10.0 mi NW 16.1 mph 20.7 mph N/A   Overcast
4:55 PM 35.6 °F 25.2 °F 26.6 °F 70% 29.87 in 10.0 mi NW 18.4 mph - N/A   Overcast
5:15 PM 35.6 °F 25.9 °F 26.6 °F 70% 29.87 in 10.0 mi NW 16.1 mph 21.9 mph N/A   Mostly Cloudy
5:35 PM 35.6 °F 25.9 °F 26.6 °F 70% 29.88 in 10.0 mi NNW 16.1 mph 21.9 mph N/A   Mostly Cloudy
5:55 PM 35.6 °F 25.9 °F 26.6 °F 70% 29.88 in 10.0 mi NW 16.1 mph 21.9 mph N/A   Overcast
6:15 PM 35.6 °F 26.2 °F 28.4 °F 75% 29.88 in 10.0 mi NW 15.0 mph - N/A   Overcast
6:35 PM 35.6 °F 25.9 °F 28.4 °F 75% 29.88 in 10.0 mi NW 16.1 mph - N/A   Overcast
6:55 PM 35.6 °F 28.0 °F 28.4 °F 75% 29.90 in 10.0 mi NW 10.4 mph - N/A   Overcast
7:15 PM 35.6 °F 28.0 °F 28.4 °F 75% 29.90 in 10.0 mi NW 10.4 mph - N/A   Overcast
7:35 PM 35.6 °F 28.0 °F 30.2 °F 81% 29.91 in 10.0 mi NW 10.4 mph - N/A   Overcast
7:55 PM 35.6 °F 27.1 °F 28.4 °F 75% 29.91 in 10.0 mi NW 12.7 mph - N/A   Overcast
8:15 PM 35.6 °F 28.6 °F 28.4 °F 75% 29.92 in 10.0 mi NW 9.2 mph - N/A   Overcast
8:35 PM 33.8 °F 26.4 °F 30.2 °F 87% 29.93 in 10.0 mi NW 9.2 mph - N/A   Overcast
9:15 PM 35.6 °F 29.9 °F 28.4 °F 75% 29.94 in 10.0 mi NNW 6.9 mph - N/A   Overcast
9:35 PM 33.8 °F 27.7 °F 28.4 °F 81% 29.95 in 10.0 mi NW 6.9 mph - N/A   Overcast
9:55 PM 33.8 °F 27.7 °F 28.4 °F 81% 29.95 in 10.0 mi NNW 6.9 mph - N/A   Overcast
10:15 PM 33.8 °F 28.6 °F 28.4 °F 81% 29.96 in 10.0 mi NNW 5.8 mph - N/A   Overcast
10:35 PM 33.8 °F 27.7 °F 28.4 °F 81% 29.96 in 10.0 mi NNW 6.9 mph - N/A   Overcast
10:55 PM 33.8 °F 27.0 °F 28.4 °F 81% 29.96 in 10.0 mi NNW 8.1 mph - N/A   Overcast
11:15 PM 33.8 °F 27.0 °F 28.4 °F 81% 29.96 in 10.0 mi NNW 8.1 mph - N/A   Overcast
11:35 PM 33.8 °F 28.6 °F 28.4 °F 81% 29.96 in 10.0 mi NNW 5.8 mph - N/A   Overcast
11:55 PM 33.8 °F 27.7 °F 28.4 °F 81% 29.97 in 10.0 mi North 6.9 mph - N/A   Overcast